Regional Weather Roundup
Issued by NWS

Home | Current Version | Previous Version | Text Only | Print | Product List | Glossary On
Versions: 1 2 3 4 5 6 7 8 9 10 11 12 13 14 15 16 17 18 19 20 21 22 23 24 25 26 27 28 29 30 31 32 33 34 35 36 37 38 39 40 41 42 43 44 45 46 47 48 49 50
000
ASUS44 KBMX 060910
RWRAL

ALABAMA REGIONAL WEATHER ROUNDUP
NATIONAL WEATHER SERVICE BIRMINGHAM AL
300 AM CST FRI MAR 06 2015

NOTE: "FAIR" INDICATES FEW OR NO CLOUDS BELOW 12,000 FEET
WITH NO SIGNIFICANT WEATHER AND/OR OBSTRUCTIONS TO VISIBILITY.

THE REMARK "TC" DENOTES TEMPERATURE IN DEGREES CELSIUS.

ALZ001>011-014-016>018-020-061000-
NORTH ALABAMA

CITY           SKY/WX    TMP DP  RH WIND       PRES   REMARKS
MUSCLE SHOALS  CLEAR     18   9  68 N6        30.53F WCI  10
HUNTSVILLE     CLEAR     19  12  74 N6        30.49F WCI  11
DECATUR        PTCLDY    17  11  77 N8        30.51F WCI   7
HALEYVILLE       N/A     14  11  88 N7        30.49F WCI   4
GADSDEN        PTCLDY    21  14  73 N13       30.41F WCI   9
$$

ALZ012-013-022-023-030>036-040>044-061000-
WEST CENTRAL ALABAMA

CITY           SKY/WX    TMP DP  RH WIND       PRES   REMARKS
TUSCALOOSA     PTCLDY    24  15  68 N13       30.49F WCI  12
$$

ALZ015-024>027-033>036-040>044-061000-
CENTRAL ALABAMA

CITY           SKY/WX    TMP DP  RH WIND       PRES   REMARKS
BIRMINGHAM     CLEAR     20  16  84 N9        30.45F WCI   9
MONTGOMERY     PTCLDY    28  20  71 NW10      30.40F WCI  19
SHELBY CO ARPT PTCLDY    23  16  74 N9        30.41F WCI  13
MAXWELL AFB    PTCLDY    28  20  75 N9        30.38F WCI  19
GREENVILLE     FAIR      28  20  71 N12       30.36S WCI  18
$$

ALZ019-021-028-029-037-038-045>048-061000-
EAST CENTRAL ALABAMA

CITY           SKY/WX    TMP DP  RH WIND       PRES   REMARKS
ANNISTON       PTCLDY    24  16  71 NE8       30.40F WCI  15
ALEXANDER CITY PTCLDY    29  20  69 N12       30.36S WCI  20
AUBURN         PTCLDY    27  18  69 N10G17    30.33F WCI  17
$$

ALZ051>064-061000-
SOUTHWEST ALABAMA

CITY           SKY/WX    TMP DP  RH WIND       PRES   REMARKS
MOBILE         CLEAR     28  20  71 N17G24    30.39F WCI  16
BROOKLEY FIELD PTCLDY    31  22  69 N16G23    30.40F WCI  20
EVERGREEN      PTCLDY    29  22  75 N7        30.38F WCI  22
$$

ALZ049-050-065>069-061000-
SOUTHEAST ALABAMA

CITY           SKY/WX    TMP DP  RH WIND       PRES   REMARKS
DOTHAN         PTCLDY    33  26  75 N15       30.34S WCI  23
OZARK          PTCLDY    32  25  74 N12       30.32S WCI  23
TROY           PTCLDY    29  23  78 NW8       30.37R WCI  21
EUFAULA        FAIR      32  25  75 NW5       30.32F WCI  27
$$


USA.gov is the U.S. government's official web portal to all federal, state and local government web resources and services.